Regional Weather Roundup
Issued by NWS

Home | Current Version | Previous Version | Graphics & Text | Print | Product List | Glossary On
Versions: 1 2 3 4 5 6 7 8 9 10 11 12 13 14 15 16 17 18 19 20 21 22 23 24 25 26 27 28 29 30 31 32 33 34 35 36 37 38 39 40 41 42 43 44 45 46 47 48 49 50
725
ASUS43 KIND 241559
RWRIN

WEATHER ROUNDUP FOR INDIANA
NATIONAL WEATHER SERVICE INDIANAPOLIS IN
1200 PM EDT WED AUG 24 2016

NOTE: "FAIR" INDICATES FEW OR NO CLOUDS BELOW 12,000 FEET WITH NO
SIGNIFICANT WEATHER AND/OR OBSTRUCTIONS TO VISIBILITY.

* - STATION DOES NOT REPORT WEATHER SUCH AS PRECIPITATION OR FOG.

+ - STATION NOT QUALITY CONTROLLED BY THE NATIONAL WEATHER SERVICE.
    USE DATA WITH CAUTION...ESPECIALLY DEWPOINT AND RELATIVE
    HUMIDITY OBSERVATIONS.

INZ001>003-010>013-019-020-241700-
NORTHWEST INDIANA

CITY           SKY/WX    TMP DP  RH WIND       PRES   REMARKS
GARY /AIRPORT/ CLOUDY    75  73  94 S6        30.01F
KNOX *+        CLOUDY    72  54  53 S7        30.04F
MONTICELLO +   RAIN      72  67  86 S5        30.05F

$$

LMZ046-743>745-241700-
SOUTHERN LAKE MICHIGAN

STATION/POSITION TIME  TEMP    WIND        PRES    WAVE
                       AIR SEA DIR/SP/G            HT
                 (UTC) (F)     (DEG/KT/KT) (MB)    (FT)
BURNS HARBOR     1505   72     180/ 11/ 17 1016.9F
MICHIGAN CITY    1500   72     150/ 10/ 15   N/A
5NW MICH CITY    1500   73 73  190/ 12/ 16   N/A     2

$$

INZ004-005-014>016-021>024-241700-
NORTH CENTRAL INDIANA

CITY           SKY/WX    TMP DP  RH WIND       PRES   REMARKS
ELKHART        CLOUDY    75  68  78 S12       30.07S
GOSHEN         CLOUDY    76  68  76 S10       30.07F
PERU/GRISSOM   LGT RAIN  75  72  88 S12       30.08S
SOUTH BEND     LGT RAIN  74  71  91 S12       30.04F

$$

INZ006>009-017-018-025>027-241700-
NORTHEAST INDIANA

CITY           SKY/WX    TMP DP  RH WIND       PRES   REMARKS
ANGOLA *+      PTSUNNY   77  70  78 S12       30.09S
FORT WAYNE     CLOUDY    79  70  74 SW14      30.11S

$$

INZ028-029-035-036-043>045-051>053-241700-
WEST CENTRAL INDIANA

CITY           SKY/WX    TMP DP  RH WIND       PRES   REMARKS
CRAWFORDSVL +  CLOUDY    73  73 100 S7        30.09S
LAFAYETTE      LGT RAIN  73  72  96 S7        30.06F FOG
TERRE HAUTE    PTSUNNY   86  74  67 SW20G26   30.07F

$$

INZ030>032-037>040-046>048-054>057-064-065-241700-
CENTRAL INDIANA

CITY           SKY/WX    TMP DP  RH WIND       PRES   REMARKS
ANDERSON       MOSUNNY   77  70  78 S12       30.13S
COLUMBUS       PTSUNNY   77  73  88 S12       30.15F
INDIANAPOLIS   CLOUDY    77  71  82 S12       30.10F
-EAGLE CREEK   CLOUDY    77  70  79 S3        30.11F
KOKOMO *+      CLOUDY    75  66  73 S9        30.10F
MT COMFORT *+  CLOUDY    73  70  88 S8        30.14S
SHELBYVILLE    CLOUDY    78  70  76 S9        30.13F

$$

INZ033-034-041-042-049-050-058-059-241700-
EAST CENTRAL INDIANA

CITY           SKY/WX    TMP DP  RH WIND       PRES   REMARKS
MUNCIE         MOSUNNY   80  71  74 SW10      30.13S

$$

INZ060-061-067>069-081>083-085>088-241700-
SOUTHWEST INDIANA

CITY           SKY/WX    TMP DP  RH WIND       PRES   REMARKS
EVANSVILLE     SUNNY     85  74  69 SW13      30.14F
HUNTINGBURG *+ MOSUNNY   84  73  70 SW13G18   30.15S

$$

INZ062-063-066-070>080-084-089>092-241700-
SOUTH CENTRAL AND SOUTHEAST INDIANA

CITY           SKY/WX    TMP DP  RH WIND       PRES   REMARKS
BLOOMINGTON    CLOUDY    83  72  69 SW13G21   30.13S
MADISON *+     MOSUNNY   82  70  65 S7        30.20S

$$





USA.gov is the U.S. government's official web portal to all federal, state and local government web resources and services.